Location: Mascot Post Office (historical)
(40.2645°N, 99.5462°W)
Time: 01:56:16
(UTC+00:00)

Cosmos 1943 - Pass Details

Date: 14 July 2020
Orbit: 835 x 848 km, 71.0° (Epoch: 14 August)

Event Time Altitude Azimuth Distance (km) Brightness Sun altitude
Exits shadow 05:24:52 58° 105° (ESE) 981 3.3 -25.4°
Drops below altitude 10° 05:30:20 10° 31° (NNE) 2,466 6.1 -25.8°
Sets 05:32:48 0° 28° (NNE) 3,403 7.0 -25.9°
